Location: Kelowna
(49.8880°N, 119.4960°W)
Time: 01:19:05
(UTC-07:00)

CAS-4A - Pass Details

Date: 21 April 2024
Orbit: 475 x 491 km, 43.0° (Epoch: 25 May)

Event Time Altitude Azimuth Distance (km) Brightness Sun altitude
Exits shadow 01:44:56 -3° 96° (E) 2,938 ? -27.1°
Enters shadow 02:44:45 -59° 252° (WSW) 11,519 ? -23.6°
Drops below altitude 10° 03:20:30 10° 116° (ESE) 1,663 ? -20.5°
Sets 03:23:14 0° 96° (E) 2,551 ? -20.2°
